BURGAS current weather conditions

sailwx.info

Wind from 070 at 6 knots

Air temperature 8.0° C
Visibility: greater than 4.3 NM
Dewpoint 8.0° C
Present weather: Light rain.

Last reported at 2015-Jan-25 18:30 UTC.
Time now 2015-Jan-25 20:26 UTC

Location: N 42°29' E 027°29'.
View on Google Maps.

See reports from other nearby stations

  
Tides and Currents Weather Stations Pressure Air Temp Water Temp Dewpoint Dewpoint Depression Visibility Wind Speed Wind Dir Waves Ship Positions
date/time (UTC)wind fromknots sea level pressurealtimeterstation pressurevisibilityair tempwater tempwave heightnotes
2015-Jan-25 19:30 130 6 3.2 8.0 Drizzle.
2015-Jan-25 19:00 140 5 3.2 9.0 Light rain.
2015-Jan-25 18:30 070 6 4.3 8.0 Light rain.
2015-Jan-25 18:00 060 7 4.3 8.0 Light rain.
2015-Jan-25 17:30 070 7 4.9 8.0 Drizzle.
2015-Jan-25 17:00 090 5 4.3 8.0 Light rain.
2015-Jan-25 16:30 100 6 4.3 8.0 Light rain.
2015-Jan-25 16:00 3.8 8.0 Rain.
2015-Jan-25 15:30 100 4 3.2 8.0 Light rain.
2015-Jan-25 15:00 060 6 4.3 8.0 Light rain.
2015-Jan-25 14:30 090 8 4.3 8.0 Rain.
2015-Jan-25 14:00 110 6 4.3 9.0 Light rain.
2015-Jan-25 13:30 110 10 5.4 9.0 Light rain.
2015-Jan-25 13:00 080 7 5.410.0
2015-Jan-25 12:30 080 8 5.410.0
2015-Jan-25 12:00 070 8 5.410.0
2015-Jan-25 11:30 080 7 5.410.0
2015-Jan-25 11:00 080 6 5.410.0
2015-Jan-25 10:30 100 8 5.410.0
2015-Jan-25 10:00 090 7 5.411.0
2015-Jan-25 09:30 090 7 5.410.0
2015-Jan-25 09:00 080 7 4.311.0
2015-Jan-25 08:30 080 8 4.310.0
2015-Jan-25 08:00 090 6 4.9 9.0
2015-Jan-25 07:30 070 4 4.3 9.0
2015-Jan-25 07:00 050 5 3.8 8.0
2015-Jan-25 06:30 050 6 2.4 7.0 Mist.
2015-Jan-25 06:00 060 7 1.5 6.0 Mist.
2015-Jan-25 05:30 070 7 3.2 7.0
2015-Jan-25 05:00 060 9 3.8 7.0
2015-Jan-25 04:30 080 7 4.9 7.0
2015-Jan-25 04:00 050 7 3.8 7.0
2015-Jan-25 03:30 050 4 2.6 7.0 Mist.
2015-Jan-25 03:00 010 6 2.6 7.0 Mist.
2015-Jan-25 02:30 060 5 2.6 7.0 Light rain. Mist.
2015-Jan-25 02:00 100 6 3.8 7.0
2015-Jan-25 01:30 090 7 3.2 7.0 Rain.
2015-Jan-25 01:00 090 7 4.3 7.0 Rain.
2015-Jan-25 00:30 100 8 4.3 7.0 Rain.
2015-Jan-25 00:00 090 8 5.4 7.0 Light rain.
2015-Jan-24 23:30 080 8 5.4 7.0
2015-Jan-24 23:00 070 8 5.4 7.0 Light drizzle.
2015-Jan-24 22:30 080 6 5.4 8.0 Light rain.
2015-Jan-24 22:00 060 7 5.4 8.0 Light rain.
2015-Jan-24 21:30 070 7 5.4 7.0
2015-Jan-24 21:00 080 5 5.4 7.0 Light rain.
2015-Jan-24 20:30 080 7 5.4 8.0
2015-Jan-24 20:00 060 7 5.4 7.0
2015-Jan-24 19:30 070 6 5.4 7.0
2015-Jan-24 19:00 090 7 5.4 7.0
2015-Jan-24 18:30 080 7 5.4 7.0
2015-Jan-24 18:00 070 5 5.4 7.0
2015-Jan-24 17:30 080 7 5.4 8.0
2015-Jan-24 17:00 080 7 5.4 7.0
2015-Jan-24 16:30 080 7 4.9 7.0
2015-Jan-24 16:00 100 9 4.9 8.0
2015-Jan-24 15:30 080 10 3.2 7.0
2015-Jan-24 15:00 070 7 3.8 8.0
2015-Jan-24 14:30 080 7 3.8 8.0
2015-Jan-24 14:00 080 7 4.9 8.0
2015-Jan-24 13:30 050 8 4.9 9.0
2015-Jan-24 13:00 050 6 3.8 8.0
2015-Jan-24 12:30 070 4 3.2 8.0 Light rain.
2015-Jan-24 12:00 120 3 2.6 8.0 Light drizzle. Mist.
2015-Jan-24 11:30 100 5 2.7 8.0 Light drizzle.
2015-Jan-24 11:00 090 5 2.4 8.0 Light rain. Mist.
2015-Jan-24 10:30 080 4 2.7 8.0 Drizzle.
2015-Jan-24 10:00 140 4 2.5 8.0 Drizzle. Mist.
2015-Jan-24 09:30 090 3 3.2 7.0 Drizzle.
2015-Jan-24 09:00 220 3 3.8 7.0
2015-Jan-24 08:30 220 4 2.5 7.0 Mist.
2015-Jan-24 08:00 1.9 6.0 Mist.
2015-Jan-24 07:30 020 3 1.2 6.0 Light rain. Mist.
2015-Jan-24 07:00 1.4 6.0 Mist.
2015-Jan-24 06:30 160 6 2.5 6.0 Mist.
2015-Jan-24 06:00 4.9 6.0
2015-Jan-24 05:30 020 4 4.3 5.0
2015-Jan-24 05:00 350 3 3.8 5.0
2015-Jan-24 04:30 320 3 4.3 5.0
2015-Jan-24 04:00 260 2 4.9 5.0
2015-Jan-24 03:30 4.3 5.0
2015-Jan-24 03:00 340 2 3.8 5.0
2015-Jan-24 02:30 220 4 4.9 6.0
2015-Jan-24 02:00 100 6 7.0
2015-Jan-24 01:30 090 7 7.0
2015-Jan-24 01:00 080 9 8.0
2015-Jan-24 00:30 070 8 7.0
2015-Jan-24 00:00 080 8 7.0
2015-Jan-23 23:30 080 9 8.0
2015-Jan-23 23:00 080 9 8.0
2015-Jan-23 22:30 070 11 8.0
2015-Jan-23 22:00 060 8 7.0
2015-Jan-23 21:30 070 11 7.0
2015-Jan-23 21:00 070 10 7.0
2015-Jan-23 20:30 070 13 7.0
2015-Jan-23 20:00 080 13 7.0